Location: Bear Trap Landing
(45.2437°N, 67.7928°W)
Time: 15:27:08
(UTC+00:00)

Envisat - Pass Details

Date: 13 March 2021
Orbit: 764 x 766 km, 98.1° (Epoch: 17 April)

Event Time Altitude Azimuth Distance (km) Brightness Sun altitude
Rises 08:48:22 0° 31° (NNE) 3,241 7.0 -21.4°
Reaches altitude 10° 08:51:49 10° 56° (NE) 2,308 6.6 -20.8°
Maximum altitude 08:54:31 14° 88° (E) 2,015 6.2 -20.4°
Drops below altitude 10° 08:57:13 10° 121° (ESE) 2,298 6.0 -19.9°
Sets 09:00:37 0° 145° (SE) 3,218 6.5 -19.4°
